CW2718 Weather Reports


Display with metric or nautical units.
time (UTC)temp
F
wind
direction
speed
MPH
gust
MPH
rain 1hr
in
rain 24hr
in
rain mn
in
humidity
%
barometer
mb
20260507205118 66 296 2.0 7.0 0.00 0.36 0.35 34 1005.9
20260507204118 66 337 0.0 3.0 0.00 0.36 0.35 34 1005.9
20260507203118 66 334 0.0 2.0 0.00 0.36 0.35 35 1006.0
20260507202118 66 274 0.0 4.0 0.00 0.36 0.35 31 1006.0
20260507200118 66 275 0.0 3.0 0.00 0.36 0.35 32 1006.1
20260507194118 65 252 0.0 8.0 0.00 0.36 0.35 32 1006.5
20260507193118 66 281 0.0 9.0 0.00 0.36 0.35 34 1006.6
20260507192118 66 280 0.0 9.0 0.00 0.36 0.35 33 1006.6
20260507191118 65 269 0.0 7.0 0.00 0.36 0.35 33 1006.8
20260507190118 65 281 0.0 4.0 0.00 0.36 0.35 38 1007.0
20260507185118 65 10 0.0 2.0 0.00 0.36 0.35 38 1007.0
20260507184117 66 96 0.0 0.0 0.00 0.36 0.35 35 1007.0
20260507183118 65 265 0.0 9.0 0.00 0.36 0.35 36 1007.2
20260507182118 64 304 0.0 4.0 0.00 0.36 0.35 37 1007.4
20260507180117 64 277 0.0 0.0 0.00 0.36 0.35 37 1007.5
20260507175118 65 266 0.0 9.0 0.00 0.36 0.35 39 1007.6
20260507173117 63 13 0.0 1.0 0.00 0.36 0.35 36 1008.0
20260507172117 63 273 0.0 3.0 0.00 0.36 0.35 38 1008.3
20260507171117 63 287 0.0 0.0 0.00 0.36 0.35 38 1008.4
20260507165117 63 324 0.0 1.0 0.00 0.36 0.35 42 1008.8
20260507164117 63 328 0.0 4.0 0.00 0.36 0.35 38 1008.9
20260507163117 64 253 0.0 3.0 0.00 0.37 0.35 40 1009.1
20260507162117 61 17 0.0 2.0 0.00 0.37 0.35 39 1009.1
20260507161117 61 150 0.0 1.0 0.00 0.38 0.35 43 1009.3
20260507160116 61 360 0.0 2.0 0.00 0.39 0.35 42 1009.2
20260507155117 62 251 0.0 0.0 0.00 0.41 0.35 45 1009.5
20260507153117 59 250 0.0 2.0 0.00 0.50 0.35 45 1009.5
20260507152117 62 331 0.0 0.0 0.00 0.53 0.35 46 1009.8
20260507151117 59 300 0.0 1.0 0.00 0.54 0.35 49 1009.8
20260507150118 59 307 0.0 1.0 0.00 0.56 0.35 51 1010.0
20260507145117 57 313 0.0 4.0 0.00 0.56 0.35 53 1010.2
20260507144117 56 281 0.0 4.0 0.00 0.58 0.35 55 1010.2
20260507143117 56 287 0.0 3.0 0.00 0.59 0.35 52 1010.3
20260507141118 56 246 0.0 1.0 0.00 0.60 0.35 58 1010.4
20260507140116 55 295 0.0 2.0 0.00 0.60 0.35 62 1010.4
20260507135117 55 281 1.0 7.0 0.00 0.60 0.35 60 1010.5
20260507134117 55 290 0.0 3.0 0.00 0.60 0.35 61 1010.5
20260507133117 54 306 0.0 3.0 0.00 0.60 0.35 66 1010.5
20260507132117 54 274 0.0 6.0 0.00 0.60 0.35 68 1010.6
20260507131117 53 215 6.0 6.0 0.00 0.60 0.35 72 1010.5
20260507130117 52 281 0.0 3.0 0.00 0.60 0.35 77 1010.4
20260507123117 50 257 0.0 0.0 0.00 0.60 0.35 92 1010.6
20260507122117 49 257 0.0 0.0 0.00 0.60 0.35 93 1010.4
20260507121116 49 257 0.0 0.0 0.00 0.60 0.35 93 1010.3
20260507120117 49 257 0.0 0.0 0.00 0.60 0.35 93 1010.5
20260507115117 49 248 0.0 0.0 0.00 0.60 0.35 93 1010.5
20260507113318 49 248 0.0 1.0 0.00 0.60 0.35 93 1008.7
20260507013141 65 258 0.0 0.0 0.00 0.24 0.24 85 1007.2
20260507012142 66 271 0.0 0.0 0.00 0.24 0.24 84 1007.1
20260507010140 66 190 0.0 6.0 0.00 0.24 0.24 83 1006.7
20260507005141 66 190 0.0 0.0 0.00 0.24 0.24 83 1006.7
20260507003141 66 190 0.0 1.0 0.00 0.24 0.24 82 1006.2
20260507002140 66 190 0.0 1.0 0.00 0.24 0.24 82 1006.1
20260507001141 67 194 0.0 0.0 0.00 0.24 0.24 81 1006.1
20260507000141 67 175 0.0 0.0 0.00 0.24 0.24 81 1006.1
20260506235142 67 189 0.0 0.0 0.00 0.24 0.24 80 1006.0
20260506234141 67 189 0.0 0.0 0.00 0.24 0.24 80 1006.0
20260506233141 67 180 0.0 3.0 0.00 0.24 0.24 79 1005.9
20260506232140 68 196 2.0 3.0 0.00 0.24 0.24 79 1005.8
20260506231141 68 221 0.0 4.0 0.00 0.24 0.24 78 1005.9
20260506230141 68 195 0.0 7.0 0.00 0.24 0.24 77 1006.0
20260506225140 69 281 0.0 1.0 0.00 0.24 0.24 77 1005.7
20260506224140 69 188 0.0 6.0 0.00 0.24 0.24 77 1005.7
20260506223140 69 184 0.0 9.0 0.00 0.24 0.24 78 1005.7
20260506222140 68 190 0.0 3.0 0.00 0.24 0.24 79 1005.3
20260506221140 68 223 0.0 6.0 0.00 0.24 0.24 79 1005.7
20260506220141 68 190 0.0 9.0 0.00 0.24 0.24 79 1005.7
20260506215140 68 220 6.0 9.0 0.00 0.24 0.24 79 1005.6
20260506214140 67 225 0.0 6.0 0.00 0.24 0.24 80 1005.5
20260506213140 67 261 3.0 10.0 0.00 0.24 0.24 81 1005.3
20260506212140 67 198 3.0 4.0 0.00 0.24 0.24 82 1005.2
20260506211140 66 261 0.0 2.0 0.00 0.24 0.24 82 1005.3
20260506210140 66 207 0.0 5.0 0.00 0.24 0.24 82 1005.4